Main page
METAR-TAF:

METAR-TAF

Airports :

Fort Morgan Municipal Airport

Fort Morgan, Colorado, United States

latitude: 40-20-02N, longitude: 103-48-15W, elevation: 4569 ft

Current weather observation

The report was made 6 minutes ago, at 16:15 UTC
Wind 5 mph from the Northeast
Temperature 68°F
Humidity 53%
Pressure 30.29 in. Hg
Visibility: 10 miles
Clear sky

METAR: KFMM 281615Z AUTO 04004KT 10SM CLR 20/10 A3029 RMK AO2 T02000097

Time: 10:21 (16:21 UTC)


TAF: missing

Weather observations and forecasts of more than 4000 airports (METAR and TAF reports).

The available stations are represented by yellow and red dots on the map.

Hover mouse over dot to see the name of the station.

Then click to see weather observations and forecasts.

To change the map : click on the green buttons with a black cross to zoom in, on the green button with a dash to zoom out, or on the green arrows for adjacent maps.


METAR-TAF: